sat.trackr.live / text

‹ back to catalog

SHIJIAN-25 (SJ-25)

NORAD 62485 · 2025-002A

PAYLOAD ACTIVE UNKNOWN

§ Identity

Operator
Country
PRC
Launch date
2025-01-06
Launch site
XICLF
Launch vehicle
Mass (kg)
RCS (m²)

Purposes: comms

External: N2YO · Heavens-Above · Gunter

§ Orbital elements

Epoch: 2026-05-24T16:22:18.369984Z

Period
1,436.14 min
Inclination
5.0596°
Eccentricity
0.0051859
Mean motion
1.00268837 rev/d
Perigee alt
35,568.8 km
Apogee alt
36,006.1 km
Semi-major
42,165.6 km
B*
0.0000e+0
RAAN
61.3122°
Arg perigee
171.3981°
Mean anomaly
22.5715°
Rev number
512

§ Raw data

SHIJIAN-25 (SJ-25)1 62485U 25002A   26144.68215706 -.00000353  00000+0  00000+0 0  99962 62485   5.0596  61.3122 0051859 171.3981  22.5715  1.00268837  5120

JSON: /api/v1/satellites/62485 · /tle

For live sub-satellite position, see the globe view (requires WebGL).

§ Visibility from observer

Set your observer location to see the next 7 days of passes ≥ 10°. The values pass through the URL so the page stays shareable.

No JS? Fill the form by hand. The geolocation button needs JavaScript.